Погода в Мугалжаре

Погода в Мугалжаре : погода сейчас, прогноз погоды и архив. Всё, что Вы хотите узнать о погоде в Мугалжаре!

Хотите узнать прогноз погоды в Мугалжаре? Тогда Вам сюда: Погода в Мугалжаре

Поиск расширенной информации на нашем сайте:

Другие новости

Новости СМИ2

Главная страница сайта

Новости сайта

03.07.2017

Напоминаем, что на нашем специализированном сайте Метеоцентр.Азия вы можете получить высокодетализированные автоматические прогнозы погоды по пунктам России, СНГ и мира в авиационном формате (включающие направление и скорость ветра, видимость, явления погоды, количество и форму облачности, нижнюю и верхнюю границу облачности).

Рекомендуем: отзывы кровмаркет

Погода в Мугалжаре - сегодня

Время (UTC), дата Ветер
(°,м/с) 
Видим.   Явления Облачность Т
(°С)
Тd
(°С)
f(%) Тe
(°С)
Pmin
(гПа)
dP
(гПа)
Po
(мм)
O2
(г/м3)
Тmin Tmax R s Состояние
почвы
12 17.07.18 110 (В) 20000 м    10/10 600 м кучево-дожд. 
[Cb cap]
+33 +7.3 20 +33  1005.8  -0.4  722  258           
15 17.07.18 110 (В) 20000 м    10/10 600 м кучево-дожд. 
[Cb cap]
+31.6 +8 23 +32  1004.2  -1.7  721  259    +33.6       
18 17.07.18 110 (В) 20000 м    6/6 600 м кучево-дожд. 
[Cb cap]
+29.9 +8.1 26 +30  1004.7  0.2  721  260    +33.6       
21 17.07.18 110 (В) 20000 м    9/9 600 м кучево-дожд. 
[Cb cap]
+28.2 +9.3 31 +29  1005.4  0.3  721  262           
00 18.07.18 140 (ЮВ) 10 км  слаб. ливневой дождь  10/10 600 м кучево-дожд. 
[Cb cap]
+25 +22.4 86 +51  1008.6  2.7  723  261           
03 18.07.18 110 (В) 20000 м  {ливн. осадки}  10/10 600 м кучево-дожд. 
[Cb cap]
+23.2 +19.6 80 +42  1007.2  -1.6  722  263           
06 18.07.18 110 (В) 10 км  слаб. ливневой дождь  10/10 600 м кучево-дожд. 
[Cb cap]
+21.6 +18.6 83 +38  1009.4  1.9  723  266  +22.6    0.0     
09 18.07.18 140 (ЮВ) 20000 м  в посл. час ливневой дождь  10/10 600 м кучево-дожд. 
[Cb cap]
+21.2 +18.1 82 +37  1008.8  -0.6  723  266           
12 18.07.18 110 (В) 10 км  слаб. ливневой дождь  10/10 600 м кучево-дожд. 
[Cb cap]
+20.2 +18.3 89 +36  1008.9  -0.2  723  267           
15 18.07.18 110 (В) 20000 м  {ливн. осадки}  9/0 средняя 
[Ac trans]
+20.6 +16.6 78 +33  1008  -0.7  722  267    +23.2       
18 18.07.18 090 (В) 20000 м    9/0 средняя 
[Ac trans]
+19.8 +15.4 76 +30  1008.1  722  268    +23.2     
21 18.07.18 090 (В) 20000 м    9/0 средняя 
[Ac trans]
+17.2 +12.5 74 +23  1009  0.3  722  271           
00 19.07.18 090 (В) 20000 м    ясно 
+16.8 +11.2 70 +22  1008.1  -0.8  722  272           
03 19.07.18 тихо ()   20000 м    ясно 
+20.8 +13.1 61 +27  1008.2  0.7  722  268           
06 19.07.18 тихо ()   20000 м    ясно 
+27.2 +9.8 34 +29  1007.9  0.6  723  263  +16.3         
09 19.07.18 тихо ()   20000 м    ясно 
+30.2 +6.8 23 +30  1006.8  -0.6  722  261           
12 19.07.18 070 (В) 20000 м    9/9 1000 м 
[Cu hum]
+33.8 +6.8 19 +34  1005.6  -0.6  722  258           
15 19.07.18 тихо ()   20000 м    ясно 
+33 +7.6 21 +33  1005.4  -0.3  722  258    +34.3       
18 19.07.18 тихо ()   20000 м    ясно 
+27.2 +6.2 26 +27  1006.7  0.4  722  263    +34.3       
21 19.07.18 тихо ()   20000 м    ясно 
+25 +8.2 34 +25  1006.5  -0.5  721  265           
00 20.07.18 110 (В) 20000 м    ясно 
+22.4 +7.4 38 +22  1007.2  0.2  722  267           
03 20.07.18 110 (В) 20000 м    ясно 
+24.2 +6.1 31 +24  1007.3  0.4  722  266           
06 20.07.18 090 (В) 20000 м    9/0 верхняя 
[Ci ing]
+30 +3 18 +30  1005.3  -1.1  721  261  +21.9         
09 20.07.18 090 (В) 20000 м    10/10 600 м кучево-дожд. 
[Cb cap]
+30.7 +8.6 25 +31  1004.8  -0.3  721  260           
12 20.07.18 130 (ЮВ) 10 км  слаб. ливневой дождь  10/10 600 м кучево-дожд. 
[Cb cap]
+24.4 +21.9 86 +49  1007.6  1.7  722  261           
Время (UTC), дата Ветер
(°,м/с) 
Видим.   Явления Облачность Т
(°С)
Тd
(°С)
f(%) Тe
(°С)
Pmin
(гПа)
dP
(гПа)
Po
(мм)
O2
(г/м3)
Тmin Tmax R s Состояние
почвы

Для получения пояснительной информации подведите курсор к названию столбца.

ПОГОДА в Мугалжаре - архив

Всё, что Вы хотите узнать о погоде в Мугалжаре - удобно и подробно!

Выберите нужную дату (начиная с 1 января 2015* года) и нажмите кнопку "Найти".
Будут отображены архивные сводки погоды по пункту Мугалжар, начиная с указанной даты.


Отображать данные в формате CSV (для использования в таблицах Excel)


Внимание! Наш архив погоды предназначен исключительно для личного некоммерческого использования в познавательных целях. Если Вам необходимы официальные справки о состоянии погоды (для производственных, юридических, коммерческих и т.п. целей), обращайтесь в органы Росгидромета.

*Примечание: данная дата относится к архиву по метеостанциям СССР (Россия, СНГ, Балтия).
Архив по метеостанциям Зарубежной Европы и Азии (кроме Китая) хранится 10 дней, по другим регионам земного шара (Китай, Африка, Америка, Австралия, Океания) - 1 день.

Мугалжар - район местоположения метеостанции


Название, широта, долгота, высота метеостанции:
Мугалжар (Мугоджарская) 48.6°ш. 58.5°д. 398 м над ур. моря [Казахстан]

Дополнительная информация

В oтличие oт бoльшинства пoгoдных сайтoв мы публикуем пoдрoбную метеoинфoрмацию в детальнoм прoфессиoнальнoм фoрмате.

Характеристики температуры и влажнoсти вoздуха измеряются на высoте 2 м в тени вдали oт зданий и деревьев.
Скoрoсть ветра измеряется на высoте 10 м (на урoвне рoста челoвека скoрoсть ветра ниже в 1.5-2 раза). Если метеoстанция нахoдится в гoрoде или в лесу, тo скoрoсть ветра занижена на 2-4 м/с пo сравнению с oткрытым местoм. Скoрoсть ветра над акватoриями крупных рек и oзёр, а также на вершинах хoлмoв на 2-5 м/с выше, чем в oбычных услoвиях.
Атмoсфернoе давление в разных тoчках местнoсти мoжет значительнo oтличаться oт давления на метеoстанции, в зависимoсти oт услoвий рельефа (при пoдъёме на 10 м давление пoнижается примернo на 1 мм рт.ст.).